Springfield, VT

4:16 PM EDT on September 26, 2017 (GMT -0400)
Hartness State

Weather History for KVSF - January, 2013

Change the Weather History Date:

Thursday, January 10, 2013

  Actual Average Record
Temperature  
Mean Temperature 34 °F 19 °F  
Max Temperature 42 °F 29 °F 46 °F (2002)
Min Temperature 25 °F 10 °F -13 °F (2004)
Degree Days  
Heating Degree Days 31 46  
Month to date heating degree days 431 449  
Since 1 July heating degree days 2837 3312  
Cooling Degree Days 0 0  
Month to date cooling degree days 0  
Year to date cooling degree days 0  
Moisture  
Dew Point 20 °F    
Average Humidity 57    
Maximum Humidity 75    
Minimum Humidity 39    
Precipitation  
Precipitation T in 0.09 in 1.09 in (2016)
Month to date precipitation T 1.20  
Year to date precipitation T 1.20  
Sea Level Pressure  
Sea Level Pressure 30.38 in    
Wind  
Wind Speed 8 mph (WNW)    
Max Wind Speed 26 mph    
Max Gust Speed 43 mph    
Visibility 10 miles    
Events Rain    
T = Trace of Precipitation, MM = Missing Value Source: NWS Daily Summary

Daily Weather History Graph

Daily Weather History Graph

Search for Another Location

Airport or City:

Trip Planner

Search our weather history database for the weather conditions in past years. The results will help you decide how hot, cold, wet, or windy it might be!

Date:

Astronomy

Jan. 10, 2013 Rise Set
Actual Time 7:21 AM EST 4:34 PM EST
Civil Twilight 6:49 AM EST 5:06 PM EST
Nautical Twilight 6:13 AM EST 5:41 PM EST
Astronomical Twilight 5:39 AM EST 6:16 PM EST
Moon 5:58 AM EST (1/10) 3:39 PM EST (1/10)
Length of Visible Light 10h 16m
Length of Day
9h 12m
Waning Crescent, 2% of the Moon is Illuminated
Jan 10
Waning Crescent
Jan 11
New
Jan 18
First Quarter
Jan 26
Full
Feb 3
Last Quarter

Hourly Weather History & Observations

Time (EST) Temp. Windchill Dew Point Humidity Pressure Visibility Wind Dir Wind Speed Gust Speed Precip Events Conditions
12:44 AM 37.4 °F 28.5 °F 28.4 °F 70% 30.04 in 7.0 mi West 15.0 mph 33.4 mph 0.00 in Rain Light Rain
12:54 AM 37.9 °F 29.2 °F 28.0 °F 68% 30.05 in 10.0 mi West 15.0 mph 32.2 mph 0.00 in   Mostly Cloudy
1:54 AM 39.9 °F 30.5 °F 23.0 °F 51% 30.10 in 10.0 mi WNW 19.6 mph 31.1 mph N/A   Mostly Cloudy
2:54 AM 37.9 °F 31.5 °F 25.0 °F 60% 30.14 in 9.0 mi WNW 9.2 mph 24.2 mph 0.00 in   Mostly Cloudy
3:54 AM 39.0 °F 31.4 °F 19.9 °F 46% 30.20 in 10.0 mi WNW 12.7 mph 27.6 mph N/A   Overcast
4:54 AM 37.9 °F 30.9 °F 19.9 °F 48% 30.25 in 10.0 mi WNW 10.4 mph - N/A   Overcast
5:54 AM 37.0 °F 29.3 °F 19.9 °F 50% 30.27 in 10.0 mi WNW 11.5 mph 18.4 mph N/A   Partly Cloudy
6:54 AM 37.0 °F 28.5 °F 18.0 °F 46% 30.32 in 10.0 mi WNW 13.8 mph 20.7 mph N/A   Clear
7:54 AM 35.1 °F - 18.0 °F 50% 30.37 in 10.0 mi Calm Calm - N/A   Clear
8:54 AM 37.0 °F 31.6 °F 19.0 °F 48% 30.38 in 10.0 mi West 6.9 mph - N/A   Clear
9:54 AM 39.0 °F 32.3 °F 19.0 °F 45% 30.41 in 10.0 mi NW 10.4 mph 18.4 mph N/A   Clear
10:54 AM 39.9 °F 31.4 °F 19.0 °F 43% 30.41 in 10.0 mi WNW 16.1 mph 25.3 mph N/A   Clear
11:54 AM 41.0 °F 33.5 °F 19.0 °F 41% 30.40 in 10.0 mi NW 13.8 mph 21.9 mph N/A   Clear
12:54 PM 41.0 °F 35.2 °F 19.0 °F 41% 30.41 in 10.0 mi West 9.2 mph - N/A   Clear
1:54 PM 42.1 °F 37.1 °F 19.0 °F 40% 30.43 in 10.0 mi NW 8.1 mph 20.7 mph N/A   Clear
2:54 PM 41.0 °F 37.1 °F 19.0 °F 41% 30.45 in 10.0 mi Variable 5.8 mph 16.1 mph N/A   Clear
3:54 PM 39.9 °F 33.9 °F 19.9 °F 45% 30.46 in 10.0 mi WNW 9.2 mph 19.6 mph N/A   Clear
4:54 PM 37.0 °F - 19.0 °F 48% 30.50 in 10.0 mi Calm Calm - N/A   Clear
5:54 PM 34.0 °F 28.0 °F 19.0 °F 54% 30.50 in 10.0 mi Variable 6.9 mph 19.6 mph N/A   Clear
6:54 PM 34.0 °F 31.0 °F 19.0 °F 54% 30.51 in 10.0 mi Variable 3.5 mph - N/A   Clear
7:54 PM 33.1 °F 28.7 °F 19.0 °F 56% 30.53 in 10.0 mi Variable 4.6 mph - N/A   Clear
8:54 PM 28.9 °F 23.9 °F 19.0 °F 67% 30.56 in 10.0 mi NE 4.6 mph - N/A   Clear
9:54 PM 26.1 °F - 19.9 °F 78% 30.58 in 10.0 mi Calm Calm - N/A   Clear
10:54 PM 26.1 °F 21.9 °F 19.9 °F 78% 30.56 in 10.0 mi NE 3.5 mph - N/A   Clear
11:54 PM 25.0 °F - 19.0 °F 78% 30.57 in 10.0 mi Calm Calm - N/A   Clear